EW9592 Weather Reports


time (UTC)temp
C
wind
direction
speed
KPH
gust
KPH
rain 1hr
cm
rain 24hr
cm
rain mn
cm
humidity
%
barometer
mb
20220812003002 23 249 0.0 0.0 0.00 0.00 0.00 88 1017.5
20220812001633 23 249 0.0 0.0 0.00 0.00 0.00 87 1017.4
20220812000100 24 249 0.0 0.0 0.00 0.00 0.00 84 1017.3
20220811234559 25 249 0.0 0.0 0.00 0.00 0.00 81 1017.1
20220811233108 25 249 0.0 0.0 0.00 0.00 0.00 79 1017.2
20220811231559 26 249 0.0 1.6 0.00 0.00 0.00 77 1017.1
20220811230059 26 249 0.0 0.0 0.00 0.00 0.00 76 1017.2
20220811224601 27 249 0.0 1.6 0.00 0.00 0.00 78 1017.1
20220811223057 26 248 0.0 0.0 0.00 0.00 0.00 77 1017.2
20220811221556 26 246 0.0 0.0 0.00 0.00 0.00 78 1017.2
20220811220058 26 346 0.0 1.6 0.00 0.00 0.00 76 1017.2
20220811214554 26 346 0.0 1.6 0.00 0.00 0.00 75 1017.0
20220811213054 27 344 0.0 4.8 0.00 0.00 0.00 68 1017.0
20220811211552 27 346 0.0 1.6 0.00 0.00 0.00 71 1017.1
20220811210049 27 347 0.0 1.6 0.00 0.00 0.00 73 1017.4
20220811204654 26 348 0.0 1.6 0.00 0.00 0.00 72 1017.7
20220811203134 26 282 0.0 1.6 0.00 0.00 0.00 72 1017.6
20220811201546 27 252 0.0 1.6 0.00 0.00 0.00 77 1017.7
20220811200045 26 276 0.0 1.6 0.00 0.00 0.00 73 1017.9
20220811194543 26 281 0.0 1.6 0.00 0.56 0.00 71 1018.1
20220811193041 26 252 0.0 3.2 0.00 0.56 0.00 67 1018.2
20220811191540 26 233 0.0 1.6 0.00 0.56 0.00 69 1018.4
20220811190040 26 150 0.0 1.6 0.00 0.56 0.00 72 1018.5
20220811184536 27 259 0.0 1.6 0.00 0.56 0.00 72 1018.7
20220811183034 26 245 0.0 1.6 0.00 0.56 0.00 71 1018.8
20220811181534 26 139 0.0 3.2 0.00 0.56 0.00 70 1018.8
20220811180035 26 132 0.0 4.8 0.00 0.56 0.00 73 1018.9
20220811174550 26 236 0.0 1.6 0.00 0.56 0.00 72 1019.1
20220811173027 26 76 0.0 1.6 0.00 0.56 0.00 74 1019.2
20220811171547 26 111 0.0 1.6 0.00 0.56 0.00 76 1019.4
20220811170026 26 111 0.0 1.6 0.00 0.56 0.00 73 1019.4
20220811164524 26 210 0.0 1.6 0.00 0.56 0.00 75 1019.5
20220811163022 25 183 0.0 1.6 0.00 0.56 0.00 77 1019.5
20220811161522 25 217 0.0 1.6 0.00 0.56 0.00 74 1019.7
20220811160021 25 103 0.0 3.2 0.00 0.56 0.00 76 1019.8
20220811154518 25 117 0.0 1.6 0.00 0.56 0.00 80 1019.9
20220811153015 23 315 0.0 1.6 0.00 0.56 0.00 85 1020.0
20220811151527 22 277 0.0 1.6 0.00 0.56 0.00 90 1020.0
20220811150007 22 229 0.0 0.0 0.00 0.56 0.00 93 1019.9
20220811144515 21 229 0.0 1.6 0.00 0.56 0.00 95 1019.9
20220811143012 21 170 0.0 0.0 0.00 0.56 0.00 97 1019.9
20220811141504 21 226 0.0 0.0 0.00 0.56 0.00 99 1019.8
20220811140010 20 226 0.0 0.0 0.00 0.56 0.00 99 1019.8
20220811134505 20 226 0.0 0.0 0.00 0.56 0.00 99 1019.9
20220811133001 20 226 0.0 0.0 0.00 0.56 0.00 99 1019.8
20220811131506 20 226 0.0 0.0 0.00 0.56 0.00 99 1019.7
20220811130101 19 226 0.0 0.0 0.00 0.56 0.00 99 1019.6
20220811124602 19 226 0.0 0.0 0.00 0.56 0.00 99 1019.5
20220811123104 18 226 0.0 0.0 0.00 0.56 0.00 99 1019.5
20220811121557 18 226 0.0 0.0 0.00 0.56 0.00 99 1019.5
20220811120102 18 226 0.0 0.0 0.00 0.56 0.00 99 1019.4
20220811114600 18 226 0.0 0.0 0.00 0.56 0.00 99 1019.2
20220811113134 18 226 0.0 0.0 0.00 0.56 0.00 99 1019.3
20220811111552 18 226 0.0 0.0 0.00 0.56 0.00 98 1019.2
20220811110057 18 226 0.0 0.0 0.00 0.56 0.00 98 1019.2
20220811104553 18 226 0.0 0.0 0.00 0.56 0.00 98 1019.0
20220811103049 18 226 0.0 0.0 0.00 0.56 0.00 98 1018.9
20220811101550 19 226 0.0 0.0 0.00 0.56 0.00 98 1018.8
20220811100046 19 226 0.0 0.0 0.00 0.56 0.00 98 1018.8
20220811094615 19 226 0.0 0.0 0.00 0.56 0.00 98 1018.8
20220811093048 19 226 0.0 0.0 0.00 0.56 0.00 98 1018.9
20220811091557 20 226 0.0 0.0 0.00 0.56 0.00 98 1019.0
20220811090048 20 226 0.0 0.0 0.00 0.56 0.00 98 1019.0
20220811084539 20 226 0.0 0.0 0.00 0.56 0.00 98 1019.0
20220811083059 20 226 0.0 0.0 0.00 0.56 0.00 98 1019.0
20220811081548 20 226 0.0 0.0 0.00 0.56 0.00 98 1019.1
20220811080041 20 226 0.0 0.0 0.00 0.56 0.00 98 1019.1
20220811074545 20 226 0.0 0.0 0.00 0.56 0.00 98 1019.1
20220811073041 20 226 0.0 0.0 0.00 0.56 0.00 98 1019.1
20220811071541 21 226 0.0 0.0 0.00 0.56 0.00 98 1019.0
20220811070133 21 226 0.0 0.0 0.00 0.56 0.00 98 1018.9
20220811064544 21 226 0.0 0.0 0.00 0.56 0.00 98 1018.9
20220811063048 21 226 0.0 0.0 0.00 0.56 0.00 98 1018.9
20220811061536 21 226 0.0 0.0 0.00 0.56 0.00 98 1019.1
20220811060034 21 227 0.0 0.0 0.00 0.56 0.00 98 1019.1
20220811054525 22 226 0.0 0.0 0.00 0.56 0.00 98 1019.1
20220811053023 22 226 0.0 0.0 0.00 0.56 0.00 98 1018.9
20220811051534 22 226 0.0 0.0 0.00 0.56 0.00 98 1019.0
20220811050021 22 226 0.0 0.0 0.00 0.56 0.00 98 1019.0
20220811044521 22 226 0.0 0.0 0.00 0.56 0.00 98 1019.0
20220811043020 22 226 0.0 0.0 0.00 0.56 0.00 98 1018.9
20220811041518 22 226 0.0 0.0 0.00 0.56 0.00 98 1018.9
20220811040017 22 225 0.0 0.0 0.00 0.56 0.00 98 1018.9
20220811034511 22 225 0.0 0.0 0.00 0.56 0.56 98 1018.8
20220811033030 22 225 0.0 0.0 0.00 0.56 0.56 98 1018.9
20220811030058 22 226 0.0 0.0 0.00 0.56 0.56 98 1019.0
20220811024554 22 226 0.0 0.0 0.00 0.56 0.56 98 1019.2
20220811023056 23 226 0.0 0.0 0.00 0.56 0.56 98 1019.1
20220811021553 23 226 0.0 1.6 0.00 0.56 0.56 98 1019.2
20220811020050 23 150 0.0 3.2 0.00 0.56 0.56 97 1019.1
20220811014558 23 41 0.0 0.0 0.00 0.56 0.56 98 1018.7
20220811013058 23 41 0.0 0.0 0.00 0.56 0.56 98 1018.6
20220811011546 24 41 0.0 0.0 0.00 0.56 0.56 98 1018.5
20220811010043 24 41 0.0 0.0 0.00 0.56 0.56 98 1018.2
20220811004549 24 41 0.0 0.0 0.00 0.56 0.56 98 1018.1